| time (UTC) | temp F | wind direction | speed MPH | gust MPH | rain 1hr in | rain 24hr in | rain mn in | humidity % | barometer mb |
| 20260505101803 | 60 | 226 | 3.0 | 9.0 | 0.00 | 0.00 | 0.00 | 84 | 1010.9 |
| 20260505101113 | 60 | 230 | 3.0 | 9.0 | 0.00 | 0.00 | 0.00 | 84 | 1010.7 |
| 20260505100003 | 60 | 233 | 2.0 | 7.0 | 0.00 | 0.00 | 0.00 | 83 | 1010.6 |
| 20260505095612 | 60 | 234 | 3.0 | 9.0 | 0.00 | 0.00 | 0.00 | 83 | 1010.6 |
| 20260505094503 | 60 | 235 | 4.0 | 12.0 | 0.00 | 0.00 | 0.00 | 83 | 1010.5 |
| 20260505093603 | 60 | 237 | 4.0 | 12.0 | 0.00 | 0.00 | 0.00 | 82 | 1010.4 |
| 20260505092703 | 60 | 233 | 4.0 | 9.0 | 0.00 | 0.00 | 0.00 | 82 | 1010.5 |
| 20260505091803 | 60 | 232 | 3.0 | 12.0 | 0.00 | 0.00 | 0.00 | 83 | 1010.5 |
| 20260505091114 | 60 | 234 | 3.0 | 9.0 | 0.00 | 0.00 | 0.00 | 83 | 1010.3 |
| 20260505090003 | 59 | 231 | 3.0 | 8.0 | 0.00 | 0.00 | 0.00 | 83 | 1010.4 |
| 20260505085403 | 59 | 230 | 2.0 | 8.0 | 0.00 | 0.00 | 0.00 | 84 | 1010.4 |
| 20260505084503 | 59 | 227 | 1.0 | 5.0 | 0.00 | 0.00 | 0.00 | 84 | 1010.5 |
| 20260505083603 | 59 | 232 | 3.0 | 8.0 | 0.00 | 0.00 | 0.00 | 83 | 1010.5 |
| 20260505082703 | 59 | 228 | 2.0 | 7.0 | 0.00 | 0.00 | 0.00 | 83 | 1010.5 |
| 20260505081803 | 59 | 215 | 2.0 | 8.0 | 0.00 | 0.00 | 0.00 | 83 | 1010.4 |
| 20260505080903 | 59 | 230 | 2.0 | 6.0 | 0.00 | 0.00 | 0.00 | 83 | 1010.6 |
| 20260505080217 | 59 | 227 | 2.0 | 7.0 | 0.00 | 0.00 | 0.00 | 83 | 1010.5 |
| 20260505075403 | 58 | 223 | 3.0 | 7.0 | 0.00 | 0.00 | 0.00 | 83 | 1010.5 |
| 20260505074503 | 58 | 219 | 2.0 | 8.0 | 0.00 | 0.00 | 0.00 | 83 | 1010.4 |
| 20260505073603 | 59 | 222 | 2.0 | 10.0 | 0.00 | 0.00 | 0.00 | 82 | 1010.5 |
| 20260505072703 | 59 | 229 | 1.0 | 7.0 | 0.00 | 0.00 | 0.00 | 82 | 1010.3 |
| 20260505071803 | 59 | 220 | 2.0 | 9.0 | 0.00 | 0.00 | 0.00 | 81 | 1010.2 |
| 20260505070903 | 59 | 227 | 2.0 | 9.0 | 0.00 | 0.00 | 0.00 | 81 | 1010.2 |
| 20260505070213 | 59 | 226 | 2.0 | 9.0 | 0.00 | 0.00 | 0.00 | 81 | 1010.3 |
| 20260505065403 | 60 | 225 | 3.0 | 8.0 | 0.00 | 0.00 | 0.00 | 80 | 1010.3 |
| 20260505064503 | 60 | 218 | 3.0 | 9.0 | 0.00 | 0.00 | 0.00 | 80 | 1010.4 |
| 20260505063603 | 60 | 220 | 3.0 | 7.0 | 0.00 | 0.00 | 0.00 | 79 | 1010.2 |
| 20260505062703 | 60 | 226 | 3.0 | 10.0 | 0.00 | 0.00 | 0.00 | 79 | 1010.4 |
| 20260505061803 | 60 | 224 | 3.0 | 10.0 | 0.00 | 0.00 | 0.00 | 79 | 1010.4 |
| 20260505060903 | 60 | 230 | 2.0 | 10.0 | 0.00 | 0.00 | 0.00 | 78 | 1010.3 |
| 20260505060003 | 60 | 227 | 2.0 | 9.0 | 0.00 | 0.00 | 0.00 | 78 | 1010.3 |
| 20260505055403 | 60 | 223 | 2.0 | 6.0 | 0.00 | 0.00 | 0.00 | 78 | 1010.4 |
| 20260505054503 | 60 | 217 | 2.0 | 8.0 | 0.00 | 0.00 | 0.00 | 77 | 1010.5 |
| 20260505053603 | 60 | 222 | 2.0 | 6.0 | 0.00 | 0.00 | 0.00 | 77 | 1010.5 |
| 20260505052703 | 60 | 223 | 2.0 | 7.0 | 0.00 | 0.00 | 0.00 | 76 | 1010.6 |
| 20260505051803 | 60 | 224 | 3.0 | 8.0 | 0.00 | 0.00 | 0.00 | 75 | 1010.7 |
| 20260505050903 | 60 | 226 | 2.0 | 9.0 | 0.00 | 0.00 | 0.00 | 75 | 1010.7 |
| 20260505050214 | 60 | 220 | 2.0 | 5.0 | 0.00 | 0.00 | 0.00 | 75 | 1010.8 |
| 20260505040903 | 60 | 217 | 1.0 | 8.0 | 0.00 | 0.00 | 0.00 | 74 | 1011.0 |
| 20260505040004 | 60 | 224 | 2.0 | 6.0 | 0.00 | 0.00 | 0.00 | 74 | 1011.0 |
| 20260505035403 | 60 | 214 | 2.0 | 5.0 | 0.00 | 0.00 | 0.00 | 74 | 1011.0 |
| 20260505034503 | 59 | 219 | 2.0 | 6.0 | 0.00 | 0.00 | 0.00 | 75 | 1011.0 |
| 20260505033603 | 59 | 227 | 1.0 | 6.0 | 0.00 | 0.00 | 0.00 | 75 | 1011.0 |
| 20260505032703 | 60 | 209 | 1.0 | 4.0 | 0.00 | 0.00 | 0.00 | 74 | 1011.0 |
| 20260505031803 | 60 | 230 | 2.0 | 7.0 | 0.00 | 0.00 | 0.00 | 74 | 1011.2 |
| 20260505030903 | 60 | 217 | 1.0 | 6.0 | 0.00 | 0.00 | 0.00 | 73 | 1011.3 |
| 20260505030003 | 60 | 209 | 2.0 | 5.0 | 0.00 | 0.00 | 0.00 | 73 | 1011.2 |
| 20260505025403 | 60 | 222 | 2.0 | 5.0 | 0.00 | 0.00 | 0.00 | 72 | 1011.4 |
| 20260505024503 | 60 | 218 | 2.0 | 6.0 | 0.00 | 0.00 | 0.00 | 72 | 1011.4 |
| 20260505023603 | 60 | 191 | 1.0 | 5.0 | 0.00 | 0.00 | 0.00 | 71 | 1011.5 |
| 20260505022914 | 60 | 204 | 1.0 | 3.0 | 0.00 | 0.00 | 0.00 | 70 | 1011.4 |
| 20260505021803 | 61 | 219 | 1.0 | 5.0 | 0.00 | 0.00 | 0.00 | 69 | 1011.5 |
| 20260505020903 | 61 | 232 | 2.0 | 6.0 | 0.00 | 0.00 | 0.00 | 68 | 1011.6 |
| 20260505020003 | 62 | 207 | 1.0 | 6.0 | 0.00 | 0.00 | 0.00 | 66 | 1011.5 |
| 20260505015403 | 62 | 223 | 1.0 | 5.0 | 0.00 | 0.00 | 0.00 | 65 | 1011.5 |
| 20260505014503 | 62 | 223 | 2.0 | 6.0 | 0.00 | 0.00 | 0.00 | 64 | 1011.6 |
| 20260505013817 | 62 | 220 | 1.0 | 5.0 | 0.00 | 0.00 | 0.00 | 64 | 1011.4 |
| 20260505012914 | 62 | 223 | 1.0 | 5.0 | 0.00 | 0.00 | 0.00 | 63 | 1011.4 |
| 20260505011803 | 62 | 214 | 1.0 | 6.0 | 0.00 | 0.00 | 0.00 | 63 | 1011.3 |
| 20260505010903 | 63 | 205 | 1.0 | 4.0 | 0.00 | 0.00 | 0.00 | 62 | 1011.2 |
| 20260505010003 | 63 | 220 | 1.0 | 3.0 | 0.00 | 0.00 | 0.00 | 62 | 1011.1 |
| 20260505005403 | 64 | 217 | 1.0 | 4.0 | 0.00 | 0.00 | 0.00 | 61 | 1011.0 |
| 20260505004715 | 64 | 210 | 1.0 | 4.0 | 0.00 | 0.00 | 0.00 | 61 | 1011.0 |
| 20260505003603 | 65 | 215 | 2.0 | 7.0 | 0.00 | 0.00 | 0.00 | 60 | 1010.9 |
| 20260505002915 | 65 | 216 | 2.0 | 6.0 | 0.00 | 0.00 | 0.00 | 60 | 1010.9 |
| 20260505001803 | 65 | 214 | 2.0 | 8.0 | 0.00 | 0.00 | 0.00 | 60 | 1010.6 |
| 20260505000903 | 66 | 221 | 2.0 | 7.0 | 0.00 | 0.00 | 0.00 | 60 | 1010.4 |
| 20260505000218 | 66 | 219 | 2.0 | 7.0 | 0.00 | 0.00 | 0.00 | 60 | 1010.3 |
| 20260504235403 | 66 | 208 | 2.0 | 6.0 | 0.00 | 0.00 | 0.00 | 59 | 1010.3 |
| 20260504234716 | 67 | 223 | 2.0 | 6.0 | 0.00 | 0.00 | 0.00 | 60 | 1010.2 |
| 20260504233603 | 67 | 227 | 2.0 | 9.0 | 0.00 | 0.00 | 0.00 | 58 | 1010.0 |
| 20260504232703 | 68 | 209 | 2.0 | 9.0 | 0.00 | 0.00 | 0.00 | 58 | 1009.9 |
| 20260504231803 | 69 | 206 | 2.0 | 9.0 | 0.00 | 0.00 | 0.00 | 56 | 1009.9 |
| 20260504230903 | 71 | 223 | 2.0 | 9.0 | 0.00 | 0.00 | 0.00 | 54 | 1009.8 |
| 20260504230003 | 72 | 238 | 3.0 | 6.0 | 0.00 | 0.00 | 0.00 | 45 | 1009.8 |
| 20260504225403 | 73 | 234 | 3.0 | 10.0 | 0.00 | 0.00 | 0.00 | 42 | 1009.6 |
| 20260504224503 | 74 | 238 | 3.0 | 9.0 | 0.00 | 0.00 | 0.00 | 42 | 1009.6 |
| 20260504223603 | 75 | 245 | 2.0 | 8.0 | 0.00 | 0.00 | 0.00 | 41 | 1009.6 |
| 20260504222703 | 75 | 243 | 3.0 | 9.0 | 0.00 | 0.00 | 0.00 | 40 | 1009.6 |
| 20260504221803 | 75 | 237 | 3.0 | 14.0 | 0.00 | 0.00 | 0.00 | 40 | 1009.6 |
| 20260504220903 | 76 | 237 | 2.0 | 5.0 | 0.00 | 0.00 | 0.00 | 40 | 1009.7 |
| 20260504220003 | 76 | 234 | 4.0 | 12.0 | 0.00 | 0.00 | 0.00 | 40 | 1009.7 |
| 20260504215403 | 77 | 231 | 4.0 | 12.0 | 0.00 | 0.00 | 0.00 | 39 | 1009.8 |
| 20260504214503 | 78 | 234 | 4.0 | 9.0 | 0.00 | 0.00 | 0.00 | 38 | 1009.7 |
| 20260504213603 | 78 | 225 | 4.0 | 12.0 | 0.00 | 0.00 | 0.00 | 37 | 1009.9 |
| 20260504212703 | 78 | 235 | 5.0 | 11.0 | 0.00 | 0.00 | 0.00 | 38 | 1009.9 |
| 20260504211803 | 78 | 233 | 4.0 | 11.0 | 0.00 | 0.00 | 0.00 | 37 | 1009.8 |
| 20260504210903 | 79 | 230 | 3.0 | 12.0 | 0.00 | 0.00 | 0.00 | 37 | 1009.9 |
| 20260504210003 | 77 | 237 | 4.0 | 12.0 | 0.00 | 0.00 | 0.00 | 38 | 1009.8 |
| 20260504205403 | 78 | 245 | 3.0 | 12.0 | 0.00 | 0.00 | 0.00 | 37 | 1009.8 |
| 20260504204503 | 78 | 236 | 4.0 | 11.0 | 0.00 | 0.00 | 0.00 | 39 | 1009.9 |
| 20260504203603 | 77 | 235 | 5.0 | 12.0 | 0.00 | 0.00 | 0.00 | 39 | 1009.8 |
| 20260504202703 | 77 | 232 | 5.0 | 11.0 | 0.00 | 0.00 | 0.00 | 40 | 1009.7 |
| 20260504201803 | 76 | 234 | 5.0 | 14.0 | 0.00 | 0.00 | 0.00 | 39 | 1010.0 |
| 20260504201112 | 76 | 227 | 5.0 | 12.0 | 0.00 | 0.00 | 0.00 | 38 | 1009.9 |
| 20260504200003 | 76 | 237 | 5.0 | 12.0 | 0.00 | 0.00 | 0.00 | 41 | 1010.0 |
| 20260504195403 | 76 | 233 | 5.0 | 12.0 | 0.00 | 0.00 | 0.00 | 39 | 1010.1 |
| 20260504194503 | 75 | 238 | 4.0 | 13.0 | 0.00 | 0.00 | 0.00 | 40 | 1010.3 |
| 20260504193603 | 76 | 233 | 3.0 | 12.0 | 0.00 | 0.00 | 0.00 | 40 | 1010.3 |
| 20260504192703 | 75 | 237 | 4.0 | 12.0 | 0.00 | 0.00 | 0.00 | 42 | 1010.4 |
| 20260504191803 | 75 | 233 | 4.0 | 13.0 | 0.00 | 0.00 | 0.00 | 42 | 1010.4 |
| 20260504190903 | 74 | 237 | 4.0 | 10.0 | 0.00 | 0.00 | 0.00 | 42 | 1010.7 |
| 20260504190003 | 75 | 227 | 4.0 | 17.0 | 0.00 | 0.00 | 0.00 | 43 | 1010.9 |
| 20260504185403 | 74 | 227 | 4.0 | 11.0 | 0.00 | 0.00 | 0.00 | 43 | 1010.9 |
| 20260504184503 | 74 | 236 | 4.0 | 12.0 | 0.00 | 0.00 | 0.00 | 43 | 1011.2 |
| 20260504183816 | 74 | 239 | 4.0 | 11.0 | 0.00 | 0.00 | 0.00 | 45 | 1011.0 |
| 20260504182703 | 74 | 243 | 4.0 | 14.0 | 0.00 | 0.00 | 0.00 | 41 | 1011.2 |
| 20260504181803 | 74 | 244 | 4.0 | 12.0 | 0.00 | 0.00 | 0.00 | 43 | 1011.3 |
| 20260504180903 | 73 | 232 | 5.0 | 14.0 | 0.00 | 0.00 | 0.00 | 43 | 1011.3 |
| 20260504180003 | 74 | 246 | 2.0 | 11.0 | 0.00 | 0.00 | 0.00 | 42 | 1011.4 |
| 20260504175612 | 74 | 254 | 3.0 | 14.0 | 0.00 | 0.00 | 0.00 | 45 | 1011.3 |
| 20260504174503 | 72 | 242 | 4.0 | 13.0 | 0.00 | 0.00 | 0.00 | 44 | 1011.5 |
| 20260504173603 | 72 | 241 | 4.0 | 12.0 | 0.00 | 0.00 | 0.00 | 43 | 1011.8 |
| 20260504172703 | 72 | 241 | 4.0 | 11.0 | 0.00 | 0.00 | 0.00 | 45 | 1011.6 |
| 20260504171803 | 72 | 244 | 6.0 | 16.0 | 0.00 | 0.00 | 0.00 | 44 | 1011.7 |
| 20260504170903 | 72 | 242 | 5.0 | 13.0 | 0.00 | 0.00 | 0.00 | 45 | 1011.9 |
| 20260504170216 | 71 | 234 | 6.0 | 13.0 | 0.00 | 0.00 | 0.00 | 42 | 1012.2 |
| 20260504150903 | 69 | 224 | 4.0 | 9.0 | 0.00 | 0.00 | 0.00 | 49 | 1013.3 |
| 20260504140903 | 66 | 238 | 4.0 | 18.0 | 0.00 | 0.00 | 0.00 | 54 | 1013.8 |